Location: Newark
(52.2090°N, 4.1550°W)
Time: 05:25:13
(UTC+00:00)

Transit 2A - Pass Details

Date: 29 October 2019
Orbit: 601 x 957 km, 66.7° (Epoch: 16 November)

Event Time Altitude Azimuth Distance (km) Brightness Sun altitude
Rises 20:24:22 0° 276° (W) 3,130 10.2 -32.4°
Reaches altitude 10° 20:27:31 10° 296° (WNW) 2,143 9.2 -32.8°
Maximum altitude 20:30:47 18° 339° (NNW) 1,623 8.1 -33.3°
Enters shadow 20:31:03 18° 343° (NNW) 1,622 8.0 -33.3°
